Flag for Kuwait Weather past 2 weeks in Kuwait City, Kuwait

Now
99 °F

Clear.


Feels Like: 93 °F
Forecast: 92 / 108 °F
Wind: 17 mph from Northwest

Location: Kuwait International Airport

Current Time: Jul 7, 2015 at 1:37:01 AM

Latest Report: Jul 7, 2015 at 12:00 AM


Visibility: 2 mi

Pressure: 29.53 "Hg

Humidity: 10%

Dew point: 34 °F

Location of Kuwait CityLocation

Historic Weather in Kuwait City — Graph

°F

Kuwait City temperature yesterday

Maximum temperature yesterday: 115 °F (at 12:00 PM)
Minimum temperature yesterday: 97 °F (at 4:00 AM)
Average temperature yesterday: 106 °F

Past Weeks' High & Low Weather Summary

 TemperatureHumidityPressure
High122 °F (Jul 4, 2:00 PM)23% (Jun 22, 4:00 AM)29.71 "Hg (Jun 22, 4:00 AM)
Low79 °F (Jun 26, 5:00 AM)5% (Jul 3, 3:00 PM)29.47 "Hg (Jun 22, 4:30 PM)
Average102 °F12%29.56 "Hg
* Reported Midnight between Jun 21 and Jun 22 — Midnight between Jul 6 and Jul 7, Kuwait City, Weather by CustomWeather, © 2015

Note: Actual official high and low records may vary slightly from our data, if they occured in-between our weather recording intervals... More about our weather records

Advertising

Kuwait City weather history for previous 24 hours

 ConditionsComfort  
Time TempWeatherWind HumidityBarometerVisibility
12:00 AM
Tue, Jul 7
99 °FClear.17 mph10%29.53 "Hg2 mi
11:00 PM
Mon, Jul 6
100 °FClear.17 mph10%29.56 "Hg2 mi
10:00 PM102 °FClear.22 mph9%29.56 "Hg4 mi
9:00 PM104 °FClear.17 mph11%29.53 "Hg5 mi
8:00 PM106 °FClear.20 mph11%29.53 "Hg2 mi
7:00 PM108 °FClear.24 mph10%29.50 "Hg2 mi
6:00 PM109 °FSunny.24 mph9%29.47 "Hg1 mi
5:00 PM111 °FSunny.29 mph9%29.47 "Hg1 mi
4:30 PM111 °FSunny.28 mph7%29.47 "Hg1 mi
4:00 PM113 °FSunny.26 mph7%29.47 "Hg2 mi
3:00 PM115 °FSunny.28 mph6%29.50 "Hg2 mi
2:00 PM115 °FSunny.28 mph6%29.50 "Hg2 mi
1:00 PM113 °FSunny.29 mph7%29.53 "Hg2 mi
12:00 PM115 °FLow level haze.26 mph7%29.56 "Hg4 mi
11:00 AM111 °FSunny.24 mph8%29.56 "Hg10 mi
10:00 AM108 °FSunny.25 mph10%29.56 "Hg10 mi
9:00 AM104 °FSunny.21 mph10%29.59 "Hg10 mi
8:00 AM102 °FSunny.18 mph11%29.59 "Hg10 mi
7:00 AM99 °FSunny.15 mph12%29.59 "Hg10 mi
6:00 AM97 °FSunny.12 mph12%29.59 "Hg10 mi
5:00 AM97 °FSunny.14 mph12%29.56 "Hg10 mi
4:00 AM97 °FClear.13 mph13%29.56 "Hg10 mi
3:00 AM99 °FClear.15 mph12%29.56 "Hg10 mi
2:00 AM100 °FClear.17 mph11%29.56 "Hg10 mi
1:00 AM100 °FClear.16 mph11%29.59 "Hg3 mi
Weather by CustomWeather, © 2015

See weather overviewHow to use our weather pages